INSAT-3DR

Last updated on May 21, 2019, 3:10 a.m. UTC

1 41752U 16054A   19140.49077105 -.00000087  00000-0  00000+0 0  9998
2 41752   0.1200  97.6096 0010193 182.4795 208.4275  1.00272789  9880
UTC
Height (km)
Latitude
Longitude
Inclination
Orbital Period
UTC large
Height (km)
Speed (km/s)
/
Latitude / Longitude
Inclination (degrees)
Orbital Period (minutes)
Azimuth
Elevation
Range (km)
Doppler Factor
iOS Compass Heading
iOS Angle

Next 30 passes for location: Hong Kong

Rise time Rise Azimuth (degrees) Set time Set Azimuth (degrees) Duration Max altitude (degrees)

No matching passes for this satellites